Marianna, FL

2:34 PM CDT on October 18, 2017 (GMT -0500)
Marianna Municipal

Weather History for KMAI - April, 2013

Change the Weather History Date:

Friday, April 19, 2013

  Actual Average Record
Temperature  
Mean Temperature 66 °F 67 °F  
Max Temperature 83 °F 81 °F 91 °F (2006)
Min Temperature 48 °F 54 °F 37 °F (2001)
Degree Days  
Heating Degree Days 0    
Month to date heating degree days 34  
Since 1 July heating degree days 1343  
Cooling Degree Days 1    
Month to date cooling degree days 62  
Year to date cooling degree days 133  
Growing Degree Days 14 (Base 50)    
Moisture  
Dew Point 62 °F    
Average Humidity 85    
Maximum Humidity 100    
Minimum Humidity 69    
Precipitation  
Precipitation 0.90 in 0.11 in 1.27 in (2015)
Month to date precipitation 2.90 2.85  
Year to date precipitation 19.75 18.37  
Sea Level Pressure  
Sea Level Pressure 29.94 in    
Wind  
Wind Speed 11 mph (WSW)    
Max Wind Speed 28 mph    
Max Gust Speed 35 mph    
Visibility 8 miles    
Events Rain , Thunderstorm    
T = Trace of Precipitation, MM = Missing Value Source: NWS Daily Summary

Daily Weather History Graph

Daily Weather History Graph

Search for Another Location

Airport or City:

Trip Planner

Search our weather history database for the weather conditions in past years. The results will help you decide how hot, cold, wet, or windy it might be!

Date:

Astronomy

Apr. 19, 2013 Rise Set
Actual Time 6:08 AM CDT 7:11 PM CDT
Civil Twilight 5:43 AM CDT 7:36 PM CDT
Nautical Twilight 5:13 AM CDT 8:06 PM CDT
Astronomical Twilight 4:43 AM CDT 8:36 PM CDT
Moon 1:19 PM CDT (4/19) 1:58 AM CDT (4/19)
Length of Visible Light 13h 53m
Length of Day
13h 03m
First Quarter, 62% of the Moon is Illuminated
Apr 19
First Quarter
Apr 25
Full
May 2
Last Quarter
May 9
New
May 17
First Quarter

Hourly Weather History & Observations

Time (CDT) Temp. Heat Index Dew Point Humidity Pressure Visibility Wind Dir Wind Speed Gust Speed Precip Events Conditions
12:41 AM 69.8 °F - 66.2 °F 88% 29.92 in 10.0 mi SSW 6.9 mph - N/A   Mostly Cloudy
12:53 AM 70.0 °F - 66.9 °F 90% 29.92 in 10.0 mi SSW 5.8 mph - N/A   Overcast
1:28 AM 69.8 °F - 66.2 °F 88% 29.91 in 10.0 mi South 8.1 mph - N/A   Scattered Clouds
1:43 AM 69.8 °F - 66.2 °F 88% 29.90 in 10.0 mi South 6.9 mph - N/A   Partly Cloudy
1:53 AM 70.0 °F - 66.9 °F 90% 29.89 in 10.0 mi South 6.9 mph - N/A   Partly Cloudy
2:12 AM 69.8 °F - 68.0 °F 94% 29.89 in 10.0 mi South 9.2 mph - N/A   Mostly Cloudy
2:53 AM 70.0 °F - 68.0 °F 93% 29.88 in 8.0 mi South 11.5 mph - N/A   Overcast
3:53 AM 70.0 °F - 69.1 °F 97% 29.87 in 4.0 mi South 10.4 mph - N/A   Overcast
4:53 AM 70.0 °F - 68.0 °F 93% 29.88 in 10.0 mi SSW 9.2 mph - N/A   Overcast
5:03 AM 69.8 °F - 68.0 °F 94% 29.89 in 10.0 mi South 9.2 mph - N/A   Overcast
5:53 AM 71.1 °F - 68.0 °F 90% 29.89 in 10.0 mi South 8.1 mph - N/A   Overcast
6:04 AM 71.6 °F - 68.0 °F 88% 29.89 in 10.0 mi South 8.1 mph - N/A   Mostly Cloudy
6:12 AM 71.6 °F - 68.0 °F 88% 29.89 in 10.0 mi South 6.9 mph - N/A   Mostly Cloudy
6:33 AM 71.6 °F - 69.8 °F 94% 29.91 in 10.0 mi South 6.9 mph - N/A   Mostly Cloudy
6:42 AM 71.6 °F - 69.8 °F 94% 29.91 in 10.0 mi South 6.9 mph - N/A   Mostly Cloudy
6:53 AM 72.0 °F - 69.1 °F 91% 29.91 in 10.0 mi South 6.9 mph - N/A   Overcast
7:15 AM 73.4 °F - 69.8 °F 88% 29.90 in 10.0 mi SSE 6.9 mph - N/A   Overcast
7:40 AM 73.4 °F - 69.8 °F 88% 29.91 in 10.0 mi South 10.4 mph - N/A   Overcast
7:53 AM 73.9 °F - 70.0 °F 87% 29.91 in 10.0 mi South 10.4 mph - N/A   Overcast
8:04 AM 73.4 °F - 69.8 °F 88% 29.91 in 10.0 mi South 9.2 mph - N/A   Overcast
8:53 AM 77.0 °F - 71.1 °F 82% 29.90 in 10.0 mi South 16.1 mph 21.9 mph N/A   Mostly Cloudy
9:03 AM 78.8 °F - 71.6 °F 78% 29.90 in 10.0 mi South 13.8 mph 23.0 mph N/A   Mostly Cloudy
9:30 AM 80.6 °F 84.6 °F 71.6 °F 74% 29.90 in 10.0 mi South 13.8 mph 24.2 mph N/A   Mostly Cloudy
9:53 AM 81.0 °F 84.4 °F 70.0 °F 69% 29.90 in 10.0 mi South 18.4 mph 29.9 mph N/A   Mostly Cloudy
10:53 AM 81.0 °F 84.4 °F 70.0 °F 69% 29.88 in 10.0 mi SSW 23.0 mph 31.1 mph 0.00 in   Mostly Cloudy
11:43 AM 71.6 °F - 66.2 °F 83% 29.90 in 1.8 mi SW 21.9 mph 32.2 mph 0.12 in Rain Heavy Rain
11:48 AM 71.6 °F - 66.2 °F 83% 29.92 in 0.8 mi West 19.6 mph 29.9 mph 0.24 in Rain Heavy Rain
11:53 AM 69.1 °F - 66.0 °F 90% 29.92 in 1.0 mi WNW 17.3 mph 25.3 mph 0.26 in Rain , Thunderstorm Heavy Rain
11:57 AM 66.2 °F - 64.4 °F 94% 29.94 in 2.0 mi WNW 18.4 mph 26.5 mph 0.02 in Rain , Thunderstorm Rain
12:10 PM 66.2 °F - 64.4 °F 94% 29.93 in 1.5 mi WNW 17.3 mph - 0.13 in Rain Heavy Rain
12:15 PM 66.2 °F - 64.4 °F 94% 29.93 in 3.0 mi NW 13.8 mph - 0.13 in Rain Light Rain
12:21 PM 64.4 °F - 62.6 °F 94% 29.93 in 2.5 mi NW 15.0 mph 24.2 mph 0.17 in Rain Heavy Rain
12:30 PM 64.4 °F - 62.6 °F 94% 29.93 in 7.0 mi WNW 15.0 mph 21.9 mph 0.17 in Rain Light Rain
12:37 PM 64.4 °F - 62.6 °F 94% 29.94 in 10.0 mi WNW 15.0 mph 21.9 mph 0.17 in   Overcast
12:44 PM 64.4 °F - 62.6 °F 94% 29.94 in 10.0 mi NW 12.7 mph - 0.17 in   Mostly Cloudy
12:53 PM 62.1 °F - 60.1 °F 93% 29.95 in 10.0 mi NW 15.0 mph 24.2 mph 0.17 in   Mostly Cloudy
1:24 PM 62.6 °F - 59.0 °F 88% 29.96 in 10.0 mi NW 11.5 mph 21.9 mph 0.01 in   Mostly Cloudy
1:53 PM 62.1 °F - 57.0 °F 84% 29.96 in 10.0 mi NW 16.1 mph 26.5 mph 0.01 in   Overcast
2:09 PM 64.4 °F - 57.2 °F 77% 29.96 in 10.0 mi NW 12.7 mph - N/A   Mostly Cloudy
2:46 PM 60.8 °F - 53.6 °F 77% 29.99 in 10.0 mi NW 18.4 mph 26.5 mph N/A   Overcast
2:53 PM 59.0 °F - 52.0 °F 78% 29.98 in 10.0 mi NW 17.3 mph 26.5 mph 0.00 in Rain Light Rain
3:53 PM 54.0 °F - 46.9 °F 77% 29.98 in 10.0 mi NW 6.9 mph - 0.00 in   Overcast
4:53 PM 55.9 °F - 48.0 °F 75% 29.97 in 10.0 mi North 6.9 mph - N/A   Mostly Cloudy
5:53 PM 55.0 °F - 50.0 °F 83% 30.02 in 10.0 mi NW 8.1 mph - 0.00 in   Overcast
6:43 PM 53.6 °F - 48.2 °F 82% 30.02 in 10.0 mi North 11.5 mph - 0.00 in   Overcast
6:53 PM 52.0 °F - 46.9 °F 83% 30.02 in 7.0 mi NNW 12.7 mph - 0.01 in Rain Rain
7:25 PM 51.8 °F - 48.2 °F 88% 30.03 in 10.0 mi NW 4.6 mph - 0.02 in Rain Light Rain
7:53 PM 50.0 °F - 46.9 °F 89% 30.04 in 5.0 mi NNW 5.8 mph - 0.07 in Rain Rain
8:53 PM 48.0 °F - 45.0 °F 89% 30.10 in 5.0 mi WNW 4.6 mph - 0.20 in Rain Rain
9:53 PM 48.9 °F - 46.9 °F 93% 30.13 in 10.0 mi West 4.6 mph - 0.08 in Rain Light Rain
10:53 PM 50.0 °F - 46.9 °F 89% 30.11 in 10.0 mi NNW 5.8 mph - 0.09 in Rain Light Rain
11:53 PM 50.0 °F - 48.0 °F 93% 30.11 in 10.0 mi NNW 4.6 mph - 0.01 in   Scattered Clouds